• In Hungary
  • List of Countries
  • For 7 days
  • Water Temperature
  • Satellite Maps
  • Weather Map
  • News
  • Weather Widgets
  • user-avatar
    Login

    Hourly Weather Mrowina

    Today, 26 September, Wednesday

    Time Temperature Precipitation Wind Pressure Humidity
    00:00 +6°C° 0 mm 2 mps 758 mmHg 78%
    01:00 +5°C° 0 mm 2 mps 759 mmHg 81%
    02:00 +5°C° 0 mm 2 mps 759 mmHg 82%
    03:00 +5°C° 0 mm 2 mps 759 mmHg 84%
    04:00 +4°C° 0 mm 2 mps 759 mmHg 86%
    05:00 +5°C° 0 mm 2 mps 759 mmHg 83%
    06:00 +5°C° 0 mm 3 mps 759 mmHg 80%
    07:00 +5°C° 0 mm 3 mps 758 mmHg 77%
    08:00 +8°C° 0 mm 3 mps 758 mmHg 68%
    09:00 +10°C° 0 mm 4 mps 758 mmHg 60%
    10:00 +11°C° 0 mm 4 mps 758 mmHg 52%
    11:00 +12°C° 0 mm 5 mps 757 mmHg 49%
    12:00 +13°C° 0 mm 5 mps 757 mmHg 46%
    13:00 +14°C° 0 mm 5 mps 756 mmHg 43%
    14:00 +13°C° 0 mm 4 mps 755 mmHg 45%
    15:00 +13°C° 0 mm 4 mps 755 mmHg 48%
    16:00 +13°C° 0 mm 4 mps 754 mmHg 50%
    17:00 +12°C° 0 mm 4 mps 754 mmHg 50%
    18:00 +12°C° 0 mm 4 mps 754 mmHg 50%
    19:00 +12°C° 0 mm 5 mps 753 mmHg 50%
    20:00 +12°C° 0 mm 5 mps 753 mmHg 48%
    21:00 +11°C° 0 mm 6 mps 753 mmHg 47%
    22:00 +13°C° 0 mm 6 mps 753 mmHg 46%
    23:00 +11°C° 0 mm 6 mps 753 mmHg 46%

    Tomorrow, 27 September, Thursday

    Time Temperature Precipitation Wind Pressure Humidity
    00:00 +11°C° 0 mm 6 mps 752 mmHg 46%
    01:00 +11°C° 0 mm 6 mps 752 mmHg 46%
    02:00 +11°C° 0 mm 6 mps 752 mmHg 46%
    03:00 +10°C° 0 mm 6 mps 752 mmHg 47%
    04:00 +10°C° 0 mm 7 mps 751 mmHg 47%
    05:00 +11°C° 0 mm 6 mps 751 mmHg 49%
    06:00 +11°C° 0 mm 6 mps 751 mmHg 51%
    07:00 +11°C° 0 mm 6 mps 751 mmHg 53%
    08:00 +13°C° 0 mm 6 mps 751 mmHg 53%
    09:00 +14°C° 0 mm 6 mps 751 mmHg 54%
    10:00 +16°C° 0 mm 6 mps 751 mmHg 54%
    11:00 +17°C° 0 mm 6 mps 751 mmHg 55%
    12:00 +19°C° 0 mm 6 mps 751 mmHg 56%
    13:00 +20°C° 0 mm 5 mps 751 mmHg 56%
    14:00 +20°C° 0 mm 5 mps 750 mmHg 58%
    15:00 +20°C° 0 mm 5 mps 750 mmHg 60%
    16:00 +20°C° 0 mm 4 mps 750 mmHg 62%
    17:00 +18°C° 0 mm 4 mps 749 mmHg 67%
    18:00 +17°C° 0 mm 3 mps 749 mmHg 72%
    19:00 +16°C° 0 mm 3 mps 749 mmHg 77%
    20:00 +14°C° 0 mm 3 mps 749 mmHg 75%
    21:00 +14°C° 0 mm 3 mps 748 mmHg 74%
    22:00 +14°C° 0 mm 3 mps 748 mmHg 72%
    23:00 +14°C° 0 mm 3 mps 748 mmHg 69%

    Day after tomorrow, 28 September, Friday

    Time Temperature Precipitation Wind Pressure Humidity
    00:00 +14°C° 0 mm 4 mps 747 mmHg 67%
    01:00 +13°C° 0 mm 4 mps 747 mmHg 64%
    02:00 +13°C° 0 mm 4 mps 746 mmHg 63%
    03:00 +13°C° 0 mm 4 mps 746 mmHg 62%
    04:00 +12°C° 0 mm 4 mps 745 mmHg 61%
    05:00 +12°C° 0 mm 4 mps 745 mmHg 61%
    06:00 +13°C° 0 mm 4 mps 745 mmHg 60%
    07:00 +13°C° 0 mm 5 mps 745 mmHg 59%
    08:00 +14°C° 0 mm 5 mps 745 mmHg 56%
    09:00 +16°C° 0 mm 5 mps 745 mmHg 53%
    10:00 +17°C° 0 mm 5 mps 745 mmHg 49%
    11:00 +17°C° 0 mm 5 mps 745 mmHg 51%
    12:00 +19°C° 0 mm 5 mps 744 mmHg 53%
    13:00 +19°C° 0 mm 5 mps 744 mmHg 55%
    14:00 +17°C° 0 mm 5 mps 744 mmHg 61%
    15:00 +17°C° 0 mm 4 mps 744 mmHg 68%
    16:00 +14°C° 0 mm 4 mps 744 mmHg 74%
    17:00 +14°C° 0 mm 4 mps 744 mmHg 75%
    18:00 +13°C° 0 mm 3 mps 745 mmHg 75%
    19:00 +12°C° 0 mm 3 mps 745 mmHg 76%
    20:00 +12°C° 0 mm 3 mps 745 mmHg 74%
    21:00 +12°C° 0 mm 3 mps 746 mmHg 71%
    22:00 +11°C° 0 mm 3 mps 746 mmHg 69%
    23:00 +12°C° 0 mm 2 mps 746 mmHg 69%

    29 September, Saturday

    Time Temperature Precipitation Wind Pressure Humidity
    00:00 +10°C° 0 mm 2 mps 746 mmHg 70%
    01:00 +11°C° 0 mm 1 mps 746 mmHg 71%
    02:00 +11°C° 0.1 mm 1 mps 746 mmHg 72%
    03:00 +9°C° 0.1 mm 2 mps 746 mmHg 74%
    04:00 +9°C° 0.1 mm 2 mps 746 mmHg 75%
    05:00 +9°C° 0 mm 2 mps 747 mmHg 76%
    06:00 +9°C° 0 mm 2 mps 747 mmHg 76%
    07:00 +9°C° 0 mm 2 mps 747 mmHg 76%
    08:00 +10°C° 0 mm 2 mps 748 mmHg 72%
    09:00 +11°C° 0 mm 3 mps 748 mmHg 67%
    10:00 +12°C° 0 mm 3 mps 749 mmHg 63%
    11:00 +13°C° 0.1 mm 4 mps 749 mmHg 58%
    12:00 +13°C° 0.1 mm 4 mps 749 mmHg 53%
    13:00 +14°C° 0.1 mm 4 mps 749 mmHg 48%
    14:00 +14°C° 0 mm 4 mps 749 mmHg 48%
    15:00 +13°C° 0 mm 4 mps 749 mmHg 48%
    16:00 +13°C° 0 mm 4 mps 749 mmHg 48%
    17:00 +12°C° 0 mm 4 mps 749 mmHg 52%
    18:00 +10°C° 0 mm 3 mps 750 mmHg 56%
    19:00 +9°C° 0 mm 3 mps 750 mmHg 59%
    20:00 +9°C° 0 mm 3 mps 750 mmHg 61%
    21:00 +8°C° 0 mm 3 mps 751 mmHg 62%
    22:00 +7°C° 0 mm 3 mps 751 mmHg 64%
    23:00 +7°C° 0 mm 3 mps 751 mmHg 67%

    30 September, Sunday

    Time Temperature Precipitation Wind Pressure Humidity
    00:00 +7°C° 0 mm 2 mps 751 mmHg 70%
    01:00 +6°C° 0 mm 2 mps 751 mmHg 73%
    02:00 +6°C° 0 mm 2 mps 751 mmHg 77%
    03:00 +6°C° 0 mm 2 mps 751 mmHg 80%
    04:00 +5°C° 0 mm 2 mps 751 mmHg 84%
    05:00 +6°C° 0 mm 2 mps 751 mmHg 83%
    06:00 +6°C° 0 mm 2 mps 750 mmHg 83%
    07:00 +7°C° 0 mm 2 mps 750 mmHg 82%
    08:00 +9°C° 0 mm 2 mps 750 mmHg 74%
    09:00 +11°C° 0 mm 3 mps 750 mmHg 66%
    10:00 +13°C° 0 mm 3 mps 750 mmHg 58%
    11:00 +14°C° 0 mm 3 mps 749 mmHg 55%
    12:00 +16°C° 0 mm 3 mps 749 mmHg 52%
    13:00 +16°C° 0 mm 3 mps 749 mmHg 48%
    14:00 +16°C° 0 mm 3 mps 748 mmHg 50%
    15:00 +16°C° 0 mm 3 mps 748 mmHg 52%
    16:00 +16°C° 0 mm 3 mps 747 mmHg 54%
    17:00 +15°C° 0 mm 2 mps 747 mmHg 59%
    18:00 +13°C° 0 mm 2 mps 747 mmHg 64%
    19:00 +12°C° 0 mm 2 mps 747 mmHg 70%
    20:00 +10°C° 0 mm 2 mps 747 mmHg 72%
    21:00 +10°C° 0 mm 2 mps 747 mmHg 75%
    22:00 +10°C° 0 mm 2 mps 747 mmHg 78%
    23:00 +9°C° 0 mm 2 mps 746 mmHg 80%

    1 October, Monday

    Time Temperature Precipitation Wind Pressure Humidity
    00:00 +9°C° 0 mm 2 mps 746 mmHg 83%
    01:00 +9°C° 0 mm 2 mps 746 mmHg 85%
    02:00 +10°C° 0 mm 1 mps 745 mmHg 87%
    03:00 +9°C° 0 mm 1 mps 745 mmHg 88%
    04:00 +9°C° 0 mm 1 mps 745 mmHg 90%
    05:00 +10°C° 0 mm 1 mps 745 mmHg 89%
    06:00 +10°C° 0 mm 1 mps 745 mmHg 88%
    07:00 +11°C° 0 mm 1 mps 745 mmHg 86%
    08:00 +13°C° 0 mm 1 mps 745 mmHg 79%
    09:00 +14°C° 0 mm 0 mps 745 mmHg 72%
    10:00 +16°C° 0 mm 0 mps 744 mmHg 65%
    11:00 +18°C° 0 mm 1 mps 744 mmHg 62%
    12:00 +19°C° 0 mm 1 mps 744 mmHg 59%
    13:00 +20°C° 0 mm 1 mps 743 mmHg 56%
    14:00 +18°C° 0 mm 2 mps 743 mmHg 58%
    15:00 +17°C° 0 mm 2 mps 743 mmHg 61%
    16:00 +17°C° 0 mm 3 mps 743 mmHg 64%
    17:00 +16°C° 0.1 mm 3 mps 743 mmHg 67%
    18:00 +14°C° 0.1 mm 3 mps 743 mmHg 71%
    19:00 +13°C° 0.1 mm 3 mps 743 mmHg 74%
    20:00 +12°C° 0.9 mm 3 mps 743 mmHg 77%
    21:00 +11°C° 0.9 mm 4 mps 743 mmHg 79%
    22:00 +10°C° 0.9 mm 4 mps 743 mmHg 82%
    23:00 +10°C° 1.7 mm 4 mps 744 mmHg 83%
    Show more